www.pogodaiklimat.ru

Погода и климат >> Архив погоды >> Самоа >> Manono


ПОГОДА в Manono

  • Прогноз погоды в Manono
  • Монитор погоды в Manono
  • Климат города

АРХИВ ПОГОДЫ в Manono

Время (UTC), дата Ветер
(напр.,м/с)
 
Видим.   Явления Облачность Т
(С)
Тd
(С)
f
(%)
Тe
(С)
Тes
(С)
Комфортность P
(гПа)
Po
(гПа)
Тmin
(С)
Tmax
(С)
R
(мм)
R24
(мм)
S
(см)
09 13.09 В 2 н/о н/о +24.7 +23.8 95 +34 +34 очень
душно
1010.3 1005.0
12 13.09 СВ 2 н/о н/о +24.4 +23.2 93 +33 +33 очень
душно
1009.5 1004.2 +34.0
15 13.09 В 1 н/о н/о +23.6 +23.8 100 +32 +32 очень
душно
1008.8 1003.5
18 13.09 В 1 н/о н/о +23.6 +22.9 96 +31 +31 очень
душно
1010.2 1004.9
21 13.09 СВ 3 н/о н/о +26.9 +24.3 86 +38 +38 очень
душно
1010.9 1005.7
00 14.09 СВ 3 н/о н/о +29.6 +23.2 69 +40 +40 очень
душно
1009.1 1003.9 +23.3 0.5
03 14.09 СВ 3 н/о н/о +27.0 +23.6 82 +37 +37 очень
душно
1007.6 1002.4
06 14.09 В 2 н/о н/о +25.0 +22.7 87 +33 +33 очень
душно
1008.5 1003.3
09 14.09 В 2 н/о н/о +24.9 +23.1 90 +33 +33 очень
душно
1010.7 1005.4
12 14.09 С 1 н/о н/о +23.8 +23.5 98 +32 +32 очень
душно
1009.9 1004.6 +33.8
15 14.09 В 1 н/о н/о +23.7 +22.8 95 +31 +31 очень
душно
1008.4 1003.1
18 14.09 В 2 н/о н/о +25.2 +22.8 87 +33 +33 очень
душно
1009.2 1004.0
21 14.09 СВ 4 н/о н/о +30.7 +25.2 73 +45 +45 опасность
перегрева
1011.1 1005.9
00 15.09 СВ 4 н/о н/о +31.1 +24.2 67 +43 +43 опасность
перегрева
1008.8 1003.7 +22.7
03 15.09 СВ 3 н/о н/о +28.6 +23.0 72 +38 +38 очень
душно
1005.4 1000.2
06 15.09 В 2 н/о н/о +26.2 +23.2 84 +35 +35 очень
душно
1007.6 1002.4
09 15.09 В 2 н/о н/о +25.6 +22.7 84 +34 +34 очень
душно
1009.0 1003.8
12 15.09 В 2 н/о н/о +25.7 +22.1 81 +33 +33 очень
душно
1008.4 1003.2 +31.0
15 15.09 В 2 н/о н/о +24.7 +22.4 87 +32 +32 очень
душно
1006.7 1001.5
18 15.09 В 2 н/о н/о +25.7 +23.0 85 +34 +34 очень
душно
1008.4 1003.2
21 15.09 В 2 н/о н/о +26.6 +25.9 96 +40 +40 очень
душно
1009.2 1004.0 3
00 16.09 Ю 1 н/о н/о +28.7 +24.6 79 +41 +41 опасность
перегрева
1009.4 1004.2 +23.2
03 16.09 В 2 н/о н/о +28.3 +24.0 78 +39 +39 очень
душно
1005.6 1000.4
06 16.09 В 2 н/о н/о +25.9 +21.9 79 +33 +33 очень
душно
1007.4 1002.2
09 16.09 В 1 н/о н/о +25.4 +22.1 82 +33 +33 очень
душно
1009.3 1004.1
12 16.09 В 1 н/о н/о +25.0 +21.3 80 +32 +32 очень
душно
1008.7 1003.5 +32.3
15 16.09 ЮВ 1 н/о н/о +24.3 +21.2 83 +31 +31 очень
душно
1007.6 1002.3
18 16.09 штиль 0 н/о н/о +24.8 +21.7 83 +32 +32 очень
душно
1009.1 1003.9
21 16.09 В 2 н/о н/о +29.8 +22.4 65 +39 +39 очень
душно
1009.4 1004.2
00 17.09 СВ 4 н/о н/о +32.5 +24.2 62 +45 +45 опасность
перегрева
1007.9 1002.8 +23.9
03 17.09 СВ 3 н/о н/о +29.1 +23.5 72 +40 +40 очень
душно
1005.1 999.9
06 17.09 ЮВ 2 н/о н/о +25.9 +22.9 84 +35 +35 очень
душно
1007.2 1002.0
09 17.09 Ю 1 н/о н/о +24.0 +21.1 84 +30 +30 очень
душно
1008.3 1003.0
12 17.09 ЮВ 1 н/о н/о +24.5 +22.0 86 +32 +32 очень
душно
1008.1 1002.9 +31.5
15 17.09 ЮВ 2 н/о н/о +24.8 +21.1 80 +31 +31 очень
душно
1007.1 1001.9
18 17.09 штиль 0 н/о н/о +24.8 +21.7 83 +32 +32 очень
душно
1008.3 1003.1
21 17.09 Ю 1 н/о н/о +30.3 +23.1 65 +40 +40 очень
душно
1008.4 1003.2
00 18.09 В 3 н/о н/о +28.2 +23.9 78 +39 +39 очень
душно
1005.7 1000.5 +24.0
03 18.09 СВ 3 н/о н/о +28.6 +23.9 76 +40 +40 очень
душно
1005.0 999.8
06 18.09 В 2 н/о н/о +25.6 +23.0 86 +34 +34 очень
душно
1006.2 1001.0
09 18.09 В 1 н/о н/о +24.6 +22.6 89 +32 +32 очень
душно
1007.9 1002.7
12 18.09 ЮВ 1 н/о н/о +24.3 +22.9 92 +32 +32 очень
душно
1006.8 1001.6 +33.2
15 18.09 В 2 н/о н/о +25.0 +22.7 87 +33 +33 очень
душно
1006.0 1000.8
18 18.09 В 1 н/о н/о +24.9 +22.9 89 +33 +33 очень
душно
1007.4 1002.2
21 18.09 СВ 4 н/о н/о +32.4 +24.9 65 +46 +46 опасность
перегрева
1009.6 1004.5
00 19.09 СВ 4 н/о н/о +33.3 +25.5 64 +48 +48 опасность
перегрева
1005.9 1000.8 +23.2
03 19.09 СВ 5 н/о н/о +29.9 +24.7 74 +43 +43 опасность
перегрева
1003.8 998.7
06 19.09 С 1 н/о н/о +24.9 +24.4 97 +35 +35 очень
душно
1005.0 999.8
09 19.09 В 2 н/о н/о +24.2 +24.2 100 +33 +33 очень
душно
1006.9 1001.7
12 19.09 ЮВ 2 н/о н/о +24.1 +23.8 98 +33 +33 очень
душно
1007.0 1001.7 +32.4
15 19.09 ЮВ 1 н/о н/о +23.7 +23.9 100 +32 +32 очень
душно
1005.7 1000.4
18 19.09 СВ 1 н/о н/о +23.0 +23.2 100 +32 +32 очень
душно
1008.0 1002.7 2
21 19.09 СВ 2 н/о н/о +23.5 +23.5 100 +32 +32 очень
душно
1008.3 1003.0
00 20.09 СВ 3 н/о н/о +28.9 +25.1 80 +42 +42 опасность
перегрева
1006.3 1001.1 +23.7
03 20.09 СВ 2 н/о н/о +27.7 +25.3 87 +40 +40 очень
душно
1002.9 997.7
06 20.09 С 1 н/о н/о +25.1 +24.0 94 +35 +35 очень
душно
1005.2 1000.0

 

Местоположение метеостанции Manono (Самоа): широта -13.85 долгота -172.11 высота над уровнем моря 46 м.

В архиве по умолчанию представлена погода в Manono за последнюю неделю. Архивные данные за месяц целиком и за предыдущие месяцы, начиная с января 2011 года, Вы можете получить, выбрав интересующий диапазон дат из раскрывающегося списка и нажав кнопку "Ввод!".


*Определитесь, кто Вы:
робот инопланетянин человек

Внимание! Время в таблицах - всемирное. Для получения местного времени необходимо прибавить поправку, которая в Manono равна 13 ч.

Смотрите также архив погоды в соседних городах и на ближайших метеорологических станциях:

Погода в Faleolo Int Airport (Самоа) (10 км)
Погода в Faleolo Int Airport (Американское Самоа) (13 км)
Погода в Faleolo Int East (Самоа) (13 км)
Погода в Maota Int Airport (Самоа) (20 км)
Погода в Togitogiga (Самоа) (42 км)
Погода в Apia (Американское Самоа) (45 км)
Погода в Le Piu Tai (Самоа) (53 км)
Погода в Le Mafa (Самоа) (56 км)
Погода в Lufi-Lufi (Самоа) (59 км)
Погода в Mount Talu (Самоа) (73 км)

Пояснения к столбцам:

Ветер - указаны скорость ветра в м/с - средняя за 10 мин, порывы в срок и между сроками (в фигурных скобках) и направление, откуда дует ветер: С - северный, СВ - северо-восточный, В - восточный, ЮВ - юго-восточный, Ю - южный, ЮЗ - юго-западный, З - западный, СЗ - северо-западный.
Видимость - горизонтальная дальность видимости в метрах или километрах. При видимости от 1 до 10 км при отсутствии осадков обычно наблюдается дымка, при ухудшении видимости до 1 км и менее - туман. В сухую погоду видимость может ухудшаться дымом, пылью или мглою.
Явления - указаны атмосферные явления, наблюдавшиеся в срок или в последний час перед сроком; фигурными скобками обозначены явления, наблюдавшиеся между сроками (за 1-3 часа до срока); квадратными скобками обозначены град или гололедные отложения с указанием их диаметра в мм.
Облачность - указаны через наклонную черту общая и нижняя облачность в баллах и высота нижней границы облаков в метрах; квадратными скобками обозначены формы облаков: Ci - перистые, Cs - перисто-слоистые, Cc - перисто-кучевые, Ac - высококучевые, As - высокослоистые, Sc - слоисто-кучевые, Ns - слоисто-дождевые, Cu - кучевые, Cb - кучево-дождевые. Подробнее классификацию облаков см. в Атласе облаков (PDF).
T - Температура воздуха - температура, измеренная на высоте 2 м над землей.
Td - Температура точки росы - температура, при понижении до которой содержащийся в воздухе водяной пар достигнет насыщения.
f - Относительная влажность воздуха - влажноcть воздуха, измеренная на высоте 2 м над землей.
Te - Эффективная температура - температура, которую ощущает одетый по сезону человек в тени. Характеристика душности погоды. При расчете учитывается влияние влажности воздуха и скорости ветра на теплоощущения человека.
Tes - Эффективная температура на солнце - температура, которую ощущает человек, с поправкой на солнечный нагрев. Характеристика знойности погоды. Зависит от высоты солнца над горизонтом, облачности и скорости ветра. Ночью, в пасмурную погоду, а также при ветре 12 м/с и более поправка равна нулю.
P - Атмосферное давление - приведенное к уровню моря атмосферное давление.
Po - Атмосферное давление - измеренное на уровне метеостанции атмосферное давление.
Tmin - Минимальная температура - минимум температуры воздуха на высоте 2 м над землей.
Tmax - Максимальная температура - максимум температуры воздуха на высоте 2 м над землей.
R - Количество осадков - Количество выпавших осадков за период времени, мм. При наведении курсора мыши на число - период времени, за который выпало указанное количество осадков.
R24 - Количество осадков - Количество выпавших осадков за 24 часа, мм.
S - Снежный покров - Высота снежного покрова, см. При наведении курсора мыши на число - состояние снежного покрова и степень покрытия местности в баллах.